Weather History for Del Rio, TX

Change the Weather History Date:

Wednesday, March 26, 2014

  Actual Average Record
Temperature  
Mean Temperature 60 °F 67 °F  
Max Temperature 63 °F 79 °F 95 °F (1932)
Min Temperature 57 °F 54 °F 28 °F (1955)
Degree Days  
Heating Degree Days 5 2  
Month to date heating degree days 134 103  
Since 1 July heating degree days 1541 1339  
Cooling Degree Days 0 4  
Month to date cooling degree days 41 66  
Year to date cooling degree days 86 85  
Growing Degree Days 10 (Base 50)    
Moisture  
Dew Point 53 °F    
Average Humidity 65    
Maximum Humidity 100    
Minimum Humidity 30    
Precipitation  
Precipitation 0.04 in 0.04 in 0.92 in (2007)
Month to date precipitation 0.30 0.99  
Year to date precipitation 0.52 2.59  
Sea Level Pressure  
Sea Level Pressure 29.95 in    
Wind  
Wind Speed 16 mph (SE)    
Max Wind Speed 29 mph    
Max Gust Speed 35 mph    
Visibility 6 miles    
Events Rain    
T = Trace of Precipitation, MM = Missing Value Source: NWS Daily Summary

Daily Weather History Graph

Daily Weather History Graph

Search for Another Location

Airport:

Trip Planner

Search our weather history database for the weather conditions in past years. The results will help you decide how hot, cold, wet, or windy it might be!

Date:

Astronomy

Mar. 26, 2014 Rise Set
Actual Time 7:40 AM CDT 7:58 PM CDT
Civil Twilight 7:16 AM CDT 8:22 PM CDT
Nautical Twilight 6:48 AM CDT 8:50 PM CDT
Astronomical Twilight 6:20 AM CDT 9:18 PM CDT
Moon 4:31 AM CDT (3/26) 3:56 PM CDT (3/26)
Length of Visible Light 13h 05m
Length of Day
12h 18m
Waning Crescent, 21% of the Moon is Illuminated
Mar 26
Waning Crescent
Mar 30
New
Apr 7
First Quarter
Apr 15
Full
Apr 22
Last Quarter

Hourly Weather History & Observations

Time (CDT) Temp. Dew Point Humidity Pressure Visibility Wind Dir Wind Speed Gust Speed Precip Events Conditions
12:53 AM 64.0 °F 45.0 °F 50% 30.04 in 10.0 mi SE 20.7 mph 27.6 mph 0.00 in Rain Light Rain
1:53 AM 63.0 °F 41.0 °F 45% 30.05 in 10.0 mi SSE 24.2 mph 32.2 mph 0.00 in   Partly Cloudy
2:53 AM 62.1 °F 30.9 °F 31% 30.04 in 10.0 mi SE 23.0 mph 28.8 mph N/A   Mostly Cloudy
3:53 AM 61.0 °F 37.0 °F 41% 30.03 in 10.0 mi SSE 18.4 mph 26.5 mph N/A   Overcast
4:53 AM 59.0 °F 39.9 °F 49% 30.00 in 10.0 mi SE 12.7 mph 25.3 mph 0.00 in   Overcast
5:53 AM 57.9 °F 44.1 °F 60% 30.00 in 10.0 mi SE 12.7 mph 26.5 mph 0.00 in   Overcast
6:19 AM 57.9 °F 45.0 °F 62% 30.03 in 10.0 mi ESE 12.7 mph - N/A   Overcast
6:53 AM 57.0 °F 46.9 °F 69% 30.01 in 10.0 mi SE 10.4 mph - N/A   Overcast
7:53 AM 57.9 °F 48.9 °F 72% 30.01 in 10.0 mi SE 11.5 mph - N/A   Overcast
8:53 AM 57.9 °F 51.1 °F 78% 30.02 in 10.0 mi SE 15.0 mph 20.7 mph N/A   Overcast
9:53 AM 57.9 °F 52.0 °F 81% 30.03 in 10.0 mi SE 17.3 mph - N/A   Overcast
10:38 AM 59.0 °F 52.0 °F 78% 30.05 in 10.0 mi SSE 17.3 mph 24.2 mph N/A   Overcast
10:53 AM 59.0 °F 52.0 °F 78% 30.02 in 10.0 mi SSE 17.3 mph 28.8 mph N/A   Overcast
11:29 AM 59.0 °F 53.1 °F 81% 30.04 in 10.0 mi SE 12.7 mph - N/A   Overcast
11:53 AM 60.1 °F 53.1 °F 78% 30.02 in 10.0 mi SE 10.4 mph - N/A   Overcast
12:53 PM 62.1 °F 53.1 °F 72% 29.99 in 10.0 mi SSE 21.9 mph 29.9 mph N/A   Overcast
1:53 PM 63.0 °F 54.0 °F 72% 29.96 in 10.0 mi SSE 20.7 mph 34.5 mph N/A   Overcast
2:53 PM 62.1 °F 54.0 °F 75% 29.93 in 10.0 mi SE 19.6 mph 28.8 mph N/A   Overcast
3:53 PM 60.1 °F 55.9 °F 86% 29.92 in 4.0 mi SE 18.4 mph 25.3 mph N/A   Overcast
4:12 PM 60.1 °F 57.0 °F 90% 29.93 in 2.5 mi ESE 12.7 mph 24.2 mph N/A   Overcast
4:53 PM 59.0 °F 57.0 °F 93% 29.90 in 2.0 mi ESE 17.3 mph 21.9 mph 0.00 in Rain Light Rain
5:22 PM 59.0 °F 57.0 °F 93% 29.92 in 1.8 mi ESE 13.8 mph 20.7 mph 0.01 in   Overcast
5:29 PM 59.0 °F 57.0 °F 93% 29.91 in 2.5 mi ESE 11.5 mph - 0.01 in   Overcast
5:53 PM 59.0 °F 57.0 °F 93% 29.88 in 2.5 mi ESE 15.0 mph 20.7 mph 0.01 in   Overcast
6:01 PM 59.0 °F 57.0 °F 93% 29.90 in 3.0 mi ESE 12.7 mph - N/A   Overcast
6:28 PM 59.0 °F 57.9 °F 96% 29.91 in 2.0 mi ESE 10.4 mph - N/A   Overcast
6:37 PM 59.0 °F 57.9 °F 96% 29.91 in 1.8 mi ESE 10.4 mph - N/A   Overcast
6:53 PM 59.0 °F 57.9 °F 96% 29.88 in 1.8 mi ESE 15.0 mph - N/A   Overcast
7:08 PM 60.1 °F 57.9 °F 93% 29.90 in 2.0 mi ESE 13.8 mph - N/A   Overcast
7:25 PM 60.1 °F 57.9 °F 93% 29.89 in 1.8 mi ESE 13.8 mph - N/A   Overcast
7:32 PM 60.1 °F 57.9 °F 93% 29.89 in 2.0 mi ESE 13.8 mph - N/A   Overcast
7:53 PM 60.1 °F 57.9 °F 93% 29.86 in 1.8 mi ESE 16.1 mph - N/A   Overcast
8:05 PM 60.1 °F 59.0 °F 96% 29.89 in 2.5 mi ESE 11.5 mph - N/A   Overcast
8:12 PM 60.1 °F 59.0 °F 96% 29.88 in 3.0 mi ESE 12.7 mph - N/A   Overcast
8:53 PM 61.0 °F 59.0 °F 93% 29.86 in 5.0 mi SE 13.8 mph - N/A   Overcast
9:53 PM 61.0 °F 59.0 °F 93% 29.86 in 4.0 mi ESE 12.7 mph - 0.00 in Rain Light Rain
10:53 PM 61.0 °F 60.1 °F 97% 29.86 in 4.0 mi ESE 13.8 mph - 0.02 in Rain Light Rain
11:53 PM 61.0 °F 60.1 °F 97% 29.84 in 5.0 mi SE 13.8 mph 21.9 mph 0.00 in   Overcast